Location: ???? ?????????????
(44.5319°N, 135.5693°E)
Time: 09:45:56
(UTC+00:00)

Daily predictions for brighter satellites

Satellite Brightness Start Highest point End
(mag) Time Altitude Azimuth Time Altitude Azimuth Time Altitude Azimuth
USA 238 DEB 4.4 18:38:43 45° NE 18:38:43 45° NE 18:43:18 10° NE
USA 238 4.4 18:38:48 45° ENE 18:38:48 45° ENE 18:43:26 10° NE
Cosmos 1697 Rocket 4.1 19:05:40 23° SSE 19:08:16 35° ESE 19:13:19 10° NE
Cosmos 2297 Rocket 2.5 19:10:55 62° E 19:10:55 62° E 19:16:11 10° SE
Cosmos 2344 4.0 19:09:34 35° NNW 19:13:43 80° NE 19:24:48 10° SE
Cosmos 1733 Rocket 4.2 19:24:04 35° SE 19:25:00 41° E 19:29:06 10° NNE
USA 215 3.8 19:24:10 10° E 19:30:29 52° NNE 19:33:23 32° NNW
USA 59 Rocket 1.5 19:35:06 27° E 19:35:06 27° E 19:36:58 10° ENE
Cosmos 2263 Rocket 3.8 19:38:36 10° N 19:43:42 33° NE 19:48:44 10° ESE
SL-4 R/B 3.4 19:46:23 28° NNE 19:46:23 28° NNE 19:49:05 10° ENE
BREEZE-M R/B 4.4 19:53:46 20° NE 19:53:46 20° NE 19:54:41 10° ENE
SL-08 R/B 4.5 19:46:10 10° S 19:52:34 89° E 19:59:04 10° N
Cosmos 2292 Rocket 4.1 19:47:57 10° N 19:52:43 79° E 19:58:49 10° S
Cosmos 2360 4.4 19:53:19 50° NW 19:53:19 50° NW 19:58:45 10° NNE
SL-24 R/B 4.4 19:50:31 10° N 19:55:25 85° WNW 20:01:00 10° SSW
Cosmos 1727 Rocket 3.9 19:50:19 10° NNW 19:56:21 57° W 20:02:23 10° SSW
PAYLOAD A 4.1 19:51:50 10° N 19:56:56 55° WNW 19:57:00 55° WNW
Cosmos 2242 Rocket 3.4 19:56:42 30° NNW 19:58:52 84° W 20:03:18 10° S
Exosat Rocket 4.0 19:54:53 10° NNW 20:00:44 64° ENE 20:05:41 10° SE
Cosmos 1656 4.5 20:01:38 34° NW 20:01:38 34° NW 20:06:05 10° N
Cosmos 1934 Rocket 3.9 20:00:48 10° S 20:06:54 88° E 20:13:07 10° N
Cosmos 2227 Rocket 2.3 20:03:54 10° NNW 20:09:33 79° ENE 20:15:13 10° SSE
Cosmos 1674 Rocket 3.8 20:10:05 10° N 20:14:31 70° E 20:18:53 10° SSE
Cosmos 2084 3.2 20:18:12 53° W 20:18:51 62° SW 20:22:50 10° SSE
BREEZE-M DEB (TANK) 3.6 20:18:46 30° W 20:21:50 75° NNW 20:27:20 10° ENE
Cosmos 1605 Rocket 4.4 20:15:39 10° S 20:21:58 68° E 20:28:19 10° NNE
NOAA 12 4.0 20:17:42 10° NNE 20:23:00 81° WNW 20:28:16 10° SSW
CZ-2C R/B 3.8 20:19:26 10° N 20:21:29 20° NNW 20:21:29 20° NNW
Meteor 1-11 4.2 20:18:40 10° NNW 20:24:30 73° W 20:30:20 10° S
USA 238 DEB 4.4 20:26:09 26° WNW 20:28:12 31° NNW 20:34:14 10° NNE
USA 238 4.4 20:26:15 26° WNW 20:28:19 32° NW 20:34:23 10° NNE
IRS-1D 3.4 20:27:09 10° N 20:32:23 73° WNW 20:37:28 10° SSW
SKYMED 2 3.6 20:29:58 10° S 20:34:12 52° W 20:38:28 10° NNW
H-2A R/B 3.8 20:30:54 10° N 20:34:25 35° WNW 20:34:43 34° W
Aureole 3 4.3 20:29:29 10° NNW 20:34:47 40° W 20:39:13 10° SSW
COSMO-SKYMED 1 2.3 20:32:48 10° SSE 20:36:54 83° WSW 20:41:02 10° NNW
NOSS 2-1 (D) 3.0 20:38:00 33° WSW 20:39:12 50° NW 20:42:14 10° NNE
Cosmos 1980 Rocket 2.2 20:34:14 10° SSW 20:39:49 84° ESE 20:45:26 10° NNE
NOSS 2-1 (C) 3.0 20:41:41 26° WSW 20:43:22 51° NW 20:46:26 10° NNE
CZ-4 R/B 3.9 20:40:07 10° N 20:45:04 68° WNW 20:50:00 10° SSW
Cosmos 1503 Rocket 4.0 20:40:35 10° SSW 20:45:44 88° ESE 20:50:59 10° NNE
NOSS 2-1 (E) 3.0 20:45:19 18° SW 20:47:54 55° NW 20:51:03 10° NNE
ISS -0.4 20:48:09 10° SSE 20:49:03 11° SE 20:49:56 10° ESE
Cosmos 1697 Rocket 3.2 20:47:28 13° WSW 20:52:07 39° NW 20:57:25 10° NNE
COSMOS 2455 2.8 20:46:16 10° SW 20:52:15 67° NW 20:58:17 10° NNE
Cosmos 2297 Rocket 3.4 20:52:47 19° W 20:54:03 20° W 20:58:01 10° SW
Cosmos 1782 Rocket 4.3 20:51:53 10° S 20:56:11 58° E 21:00:32 10° NNE
Cosmos 1908 Rocket 3.4 20:52:44 10° SSW 20:57:02 69° W 21:01:25 10° N
Cosmos 2221 Rocket 3.6 20:53:02 10° NNW 20:57:34 68° W 21:02:02 10° S
Cosmos 1869 4.2 20:55:26 10° SSE 20:58:50 46° E 21:02:15 10° NNE
Cosmos 1733 Rocket 4.4 21:01:06 16° W 21:02:50 19° WNW 21:05:59 10° NNW
NOSS 3-1 (C) 2.8 21:00:13 10° SW 21:04:48 80° NW 21:10:19 10° NE
Cosmos 2219 3.3 20:59:20 10° NNW 21:05:06 81° ENE 21:10:47 10° SSE
Cosmos 1812 1.5 21:04:20 10° S 21:06:46 86° E 21:09:12 10° N
NOSS 3-1 (A) 4.2 21:05:15 10° S 21:09:31 43° ESE 21:14:32 10° NE
Helios 1A Rocket 2.3 21:07:35 10° SSE 21:10:52 88° WSW 21:14:09 10° NNW
SMAP 3.7 21:06:28 10° NNE 21:11:05 60° ESE 21:15:40 10° S
Cosmos 1777 Rocket 4.3 21:08:30 10° SW 21:13:26 44° WNW 21:18:24 10° N
USA 215 3.4 21:06:58 10° SE 21:13:26 59° SW 21:19:56 10° NW
ARIANE 5 R/B 4.1 21:12:50 10° NNE 21:17:30 39° E 21:22:08 10° SSE
Cosmos 783 Rocket 4.5 21:13:02 10° NNW 21:18:12 66° WSW 21:23:18 10° S
GP-B 3.1 21:17:23 10° N 21:21:42 57° W 21:25:58 10° SSW
USA 59 Rocket 0.9 21:20:44 11° W 21:22:43 17° NW 21:24:48 10° N
SL-4 R/B 1.7 21:20:00 10° WNW 21:23:37 88° SSW 21:27:25 10° ESE
CBERS-1 4.0 21:21:23 10° NNE 21:26:31 80° WNW 21:31:36 10° SSW
Cosmos 2263 Rocket 2.6 21:22:24 10° NW 21:27:43 42° WSW 21:32:58 10° S
Thor Agena Rocket 4.1 21:23:22 10° NNE 21:28:36 66° ESE 21:33:49 10° S
Cosmos 1400 Rocket 3.0 21:28:24 10° SSW 21:32:01 44° WNW 21:35:42 10° N
Cosmos 2369 3.7 21:27:43 10° SSW 21:33:22 69° WNW 21:39:02 10° NNE
MOS 1 Rocket 3.1 21:30:11 10° N 21:34:28 72° WNW 21:38:54 10° SSW
Cosmos 1025 Rocket 4.3 21:31:50 10° NW 21:35:04 21° W 21:38:16 10° SW
Cosmos 2173 Rocket 4.2 21:28:54 10° S 21:35:16 86° E 21:41:41 10° N
Cosmos 2082 3.7 21:30:35 10° NNW 21:36:17 72° WSW 21:41:54 10° SSE
